Gustavus, AK

6:17 PM AKST on November 18, 2017 (GMT -0900)
Gustavus

Weather History for PAGS - January, 2015

Change the Weather History Date:

Sunday, January 18, 2015

  Actual Average Record
Temperature  
Mean Temperature 34 °F -  
Max Temperature 37 °F 35 °F 48 °F (2001)
Min Temperature 30 °F 26 °F -2 °F (1952)
Degree Days  
Heating Degree Days 32    
Moisture  
Dew Point 32 °F    
Average Humidity 91    
Maximum Humidity 93    
Minimum Humidity 81    
Precipitation  
Precipitation 0.00 in - - ()
Sea Level Pressure  
Sea Level Pressure 29.44 in    
Wind  
Wind Speed 4 mph (NNW)    
Max Wind Speed 8 mph    
Max Gust Speed -    
Visibility 7 miles    
Events      
Averages and records for this station are not official NWS values.
T = Trace of Precipitation, MM = Missing Value Source: NWS Daily Summary

Daily Weather History Graph

Daily Weather History Graph

Search for Another Location

Airport or City:

Trip Planner

Search our weather history database for the weather conditions in past years. The results will help you decide how hot, cold, wet, or windy it might be!

Date:

Astronomy

Jan. 18, 2015 Rise Set
Actual Time 8:34 AM AKST 3:52 PM AKST
Civil Twilight 7:46 AM AKST 4:40 PM AKST
Nautical Twilight 6:55 AM AKST 5:31 PM AKST
Astronomical Twilight 6:08 AM AKST 6:18 PM AKST
Moon 6:35 AM AKST (1/18) 2:27 PM AKST (1/18)
Length of Visible Light 8h 54m
Length of Day
7h 17m
Waning Crescent, 4% of the Moon is Illuminated
Jan 18
Waning Crescent
Jan 20
New
Jan 26
First Quarter
Feb 3
Full
Feb 11
Last Quarter

Hourly Weather History & Observations

Time (AKST) Temp. Windchill Dew Point Humidity Pressure Visibility Wind Dir Wind Speed Gust Speed Precip Events Conditions
12:16 AM 37.4 °F 32.8 °F 35.6 °F 93% 29.44 in 5.0 mi NNW 5.8 mph - N/A   Mostly Cloudy
12:36 AM 37.4 °F 32.8 °F 35.6 °F 93% 29.44 in 10.0 mi NNW 5.8 mph - N/A   Scattered Clouds
12:56 AM 35.6 °F 29.9 °F 33.8 °F 93% 29.43 in 10.0 mi NW 6.9 mph - N/A   Clear
1:16 AM 37.4 °F 32.8 °F 35.6 °F 93% 29.43 in 10.0 mi NW 5.8 mph - N/A   Scattered Clouds
1:36 AM 35.6 °F 29.9 °F 33.8 °F 93% 29.42 in 10.0 mi NNW 6.9 mph - N/A   Overcast
1:56 AM 35.6 °F 29.9 °F 33.8 °F 93% 29.42 in 10.0 mi NNW 6.9 mph - N/A   Mostly Cloudy
2:16 AM 35.6 °F 30.7 °F 33.8 °F 93% 29.42 in 10.0 mi NNW 5.8 mph - N/A   Mostly Cloudy
2:36 AM 35.6 °F 30.7 °F 33.8 °F 93% 29.42 in 2.0 mi NNW 5.8 mph - N/A   Overcast
2:56 AM 35.6 °F 31.7 °F 32.0 °F 87% 29.41 in 1.2 mi North 4.6 mph - N/A   Overcast
3:16 AM 33.8 °F 30.8 °F 32.0 °F 93% 29.40 in 0.8 mi North 3.5 mph - N/A   Overcast
3:36 AM 35.6 °F 32.8 °F 32.0 °F 87% 29.40 in 1.0 mi NNW 3.5 mph - N/A   Overcast
3:56 AM 33.8 °F 27.7 °F 32.0 °F 93% 29.39 in 1.5 mi NNW 6.9 mph - N/A   Overcast
4:16 AM 33.8 °F 29.6 °F 32.0 °F 93% 29.39 in 5.0 mi North 4.6 mph - N/A   Mostly Cloudy
4:36 AM 35.6 °F 29.2 °F 33.8 °F 93% 29.39 in 10.0 mi North 8.1 mph - N/A   Mostly Cloudy
4:56 AM 35.6 °F 29.9 °F 33.8 °F 93% 29.38 in 10.0 mi North 6.9 mph - N/A   Partly Cloudy
5:16 AM 35.6 °F 32.8 °F 32.0 °F 87% 29.39 in 10.0 mi NNW 3.5 mph - N/A   Partly Cloudy
5:36 AM 33.8 °F 29.6 °F 30.2 °F 87% 29.39 in 9.0 mi East 4.6 mph - N/A   Mostly Cloudy
5:56 AM 33.8 °F 30.8 °F 30.2 °F 87% 29.38 in 1.8 mi NNW 3.5 mph - N/A   Overcast
6:16 AM 33.8 °F 30.8 °F 30.2 °F 87% 29.38 in 10.0 mi NW 3.5 mph - N/A   Mostly Cloudy
6:36 AM 33.8 °F 30.8 °F 30.2 °F 87% 29.37 in 10.0 mi NW 3.5 mph - N/A   Mostly Cloudy
6:56 AM 33.8 °F - 28.4 °F 81% 29.37 in 10.0 mi Calm Calm - N/A   Partly Cloudy
7:16 AM 32.0 °F - 30.2 °F 93% 29.37 in 9.0 mi Calm Calm - N/A   Scattered Clouds
7:36 AM 32.0 °F - 30.2 °F 93% 29.37 in 1.8 mi Calm Calm - N/A   Mostly Cloudy
7:56 AM 32.0 °F 28.7 °F 30.2 °F 93% 29.37 in 1.5 mi NNW 3.5 mph - N/A   Overcast
8:16 AM 32.0 °F - 28.4 °F 87% 29.37 in 1.0 mi Calm Calm - N/A   Overcast
8:36 AM 30.2 °F - 28.4 °F 93% 29.37 in 3.0 mi Calm Calm - N/A   Scattered Clouds
8:56 AM 30.2 °F - 28.4 °F 93% 29.37 in 10.0 mi Calm Calm - N/A   Partly Cloudy
9:16 AM 32.0 °F - 28.4 °F 87% 29.37 in 10.0 mi Calm Calm - N/A   Mostly Cloudy
9:36 AM 32.0 °F - 30.2 °F 93% 29.38 in 5.0 mi Calm Calm - N/A   Partly Cloudy
9:56 AM 32.0 °F - 28.4 °F 87% 29.38 in 2.0 mi Calm Calm - N/A   Clear
10:16 AM 32.0 °F - 30.2 °F 93% 29.37 in 2.0 mi Calm Calm - N/A   Clear
10:36 AM 32.0 °F - 30.2 °F 93% 29.37 in 6.0 mi Calm Calm - N/A   Clear
10:56 AM 33.8 °F - 30.2 °F 87% 29.37 in 10.0 mi Calm Calm - N/A   Clear
11:16 AM 32.0 °F - 30.2 °F 93% 29.37 in 10.0 mi Calm Calm - N/A   Scattered Clouds
11:36 AM 33.8 °F - 30.2 °F 87% 29.38 in 10.0 mi Calm Calm - N/A   Scattered Clouds
11:56 AM 33.8 °F - 30.2 °F 87% 29.38 in 10.0 mi Calm Calm - N/A   Mostly Cloudy
12:16 PM 33.8 °F - 32.0 °F 93% 29.38 in 10.0 mi Calm Calm - N/A   Overcast
12:36 PM 33.8 °F - 32.0 °F 93% 29.38 in 8.0 mi Calm Calm - N/A   Overcast
12:56 PM 33.8 °F - 32.0 °F 93% 29.38 in 10.0 mi Calm Calm - N/A   Overcast
1:16 PM 35.6 °F - 33.8 °F 93% 29.38 in 10.0 mi Calm Calm - N/A   Overcast
1:36 PM 35.6 °F - 33.8 °F 93% 29.39 in 10.0 mi Calm Calm - N/A   Overcast
1:56 PM 35.6 °F - 33.8 °F 93% 29.39 in 10.0 mi Calm Calm - N/A   Overcast
2:16 PM 35.6 °F 32.8 °F 33.8 °F 93% 29.39 in 9.0 mi North 3.5 mph - N/A   Overcast
2:36 PM 35.6 °F - 33.8 °F 93% 29.40 in 5.0 mi Calm Calm - N/A   Overcast
2:56 PM 35.6 °F - 33.8 °F 93% 29.41 in 1.8 mi Calm Calm - N/A   Overcast
3:16 PM 35.6 °F - 33.8 °F 93% 29.41 in 2.0 mi Calm Calm - N/A   Overcast
3:36 PM 35.6 °F - 33.8 °F 93% 29.42 in 4.0 mi Calm Calm - N/A   Overcast
3:56 PM 35.6 °F - 33.8 °F 93% 29.43 in 4.0 mi Calm Calm - N/A   Overcast
4:16 PM 35.6 °F - 33.8 °F 93% 29.44 in 9.0 mi Calm Calm - N/A   Overcast
4:36 PM 35.6 °F - 32.0 °F 87% 29.45 in 5.0 mi Calm Calm - N/A   Overcast
4:56 PM 35.6 °F - 33.8 °F 93% 29.46 in 5.0 mi Calm Calm - N/A   Overcast
5:16 PM 35.6 °F 32.8 °F 33.8 °F 93% 29.47 in 2.5 mi NNW 3.5 mph - N/A   Overcast
5:36 PM 35.6 °F - 33.8 °F 93% 29.47 in 7.0 mi Calm Calm - N/A   Overcast
5:56 PM 35.6 °F 32.8 °F 33.8 °F 93% 29.48 in 8.0 mi NNW 3.5 mph - N/A   Overcast
6:16 PM 35.6 °F 31.7 °F 33.8 °F 93% 29.49 in 10.0 mi NNW 4.6 mph - N/A   Overcast
6:36 PM 35.6 °F 31.7 °F 33.8 °F 93% 29.49 in 10.0 mi NNW 4.6 mph - N/A   Overcast
6:56 PM 35.6 °F 29.9 °F 33.8 °F 93% 29.50 in 10.0 mi North 6.9 mph - N/A   Overcast
7:16 PM 37.4 °F 33.8 °F 35.6 °F 93% 29.51 in 10.0 mi North 4.6 mph - N/A   Overcast
7:36 PM 35.6 °F 31.7 °F 33.8 °F 93% 29.52 in 10.0 mi NNW 4.6 mph - N/A   Overcast
7:56 PM 37.4 °F 33.8 °F 35.6 °F 93% 29.52 in 10.0 mi NNW 4.6 mph - N/A   Overcast
8:16 PM 35.6 °F 31.7 °F 33.8 °F 93% 29.53 in 10.0 mi NNW 4.6 mph - N/A   Overcast
8:36 PM 35.6 °F 32.8 °F 33.8 °F 93% 29.53 in 10.0 mi NNW 3.5 mph - N/A   Overcast
8:56 PM 37.4 °F 34.9 °F 33.8 °F 87% 29.54 in 10.0 mi North 3.5 mph - N/A   Overcast
9:16 PM 35.6 °F 32.8 °F 33.8 °F 93% 29.55 in 10.0 mi NNW 3.5 mph - N/A   Overcast
9:36 PM 37.4 °F - 33.8 °F 87% 29.56 in 10.0 mi Calm Calm - N/A   Mostly Cloudy
9:56 PM 35.6 °F - 33.8 °F 93% 29.57 in 10.0 mi Calm Calm - N/A   Overcast
10:16 PM 35.6 °F - 30.2 °F 81% 29.59 in 9.0 mi Calm Calm - N/A   Overcast
10:36 PM 35.6 °F - 33.8 °F 93% 29.59 in 4.0 mi Calm Calm - N/A   Overcast
10:56 PM 35.6 °F - 33.8 °F 93% 29.60 in 10.0 mi Calm Calm - N/A   Mostly Cloudy
11:16 PM 33.8 °F 30.8 °F 32.0 °F 93% 29.60 in 5.0 mi North 3.5 mph - N/A   Mostly Cloudy
11:36 PM 33.8 °F 29.6 °F 32.0 °F 93% 29.61 in 10.0 mi NNW 4.6 mph - N/A   Overcast
11:56 PM 35.6 °F 31.7 °F 33.8 °F 93% 29.61 in 10.0 mi NW 4.6 mph - N/A   Overcast